[Iaude] MPEC E184: 2024 ED4 [a=1.81,e=0.45,i=2.1,H=26.5]
    mpec at cfa.harvard.edu 
    mpec at cfa.harvard.edu
       
    Thu Mar 14 15:35:14 EDT 2024
    
    
  
M.P.E.C. 2024-E184                               Issued 2024 March 14, 19:33 UT
     The Minor Planet Electronic Circulars contain information on unusual
         minor planets, routine data on comets and natural satellites,
         and occasional editorial announcements.  They are published
    on behalf of Division F of the International Astronomical Union by the
          Minor Planet Center, Smithsonian Astrophysical Observatory,
                          Cambridge, MA 02138, U.S.A.
			  
             Prepared using the Tamkin Foundation Computer Network
                              MPC at CFA.HARVARD.EDU
            URL https://www.minorplanetcenter.net/    ISSN 1523-6714
                                    2024 ED4                                    
Observations:
     K24E04D*1C2024 03 12.36283211 20 32.384-07 22 52.46         22.24GVEE184G96
     K24E04D 1C2024 03 12.36758611 20 33.479-07 23 01.21         21.43GVEE184G96
     K24E04D 1C2024 03 12.37233711 20 34.512-07 23 10.61         22.16GVEE184G96
     K24E04D 1C2024 03 12.37707911 20 35.628-07 23 21.01         22.09GVEE184G96
     K24E04D 1C2024 03 12.39746611 20 40.350-07 24 01.40               VEE184G96
     K24E04D 1C2024 03 12.39822811 20 40.600-07 24 04.10               VEE184G96
     K24E04D 1C2024 03 12.39899111 20 40.800-07 24 04.80               VEE184G96
     K24E04D 7C2024 03 12.92523711 23 08.214-07 42 31.19               VEE184Z84
     K24E04D 7C2024 03 12.94532811 23 13.215-07 43 14.81         21.8 GVEE184Z84
     K24E04D 7C2024 03 12.96136911 23 17.175-07 43 49.95         21.8 GVEE184Z84
     K24E04D 7C2024 03 13.92978311 28 02.573-08 19 53.92         21.1 GVEE184Z84
     K24E04D 7C2024 03 13.96586711 28 12.573-08 21 19.08         22.1 GVEE184Z84
     K24E04D |C2024 03 14.16695011 29 15.470-08 27 18.00         21.3 GVEE184807
     K24E04D |C2024 03 14.17585011 29 17.940-08 27 39.50         21.4 GVEE184807
     K24E04D |C2024 03 14.18458011 29 20.390-08 28 00.50         21.4 GVEE184807
Observer details:
807 Cerro Tololo Observatory, La Serena.  Observers T. Linder, R. Holmes.
    0.61-m f/6.8 Ritchey-Chretien + CCD.
G96 Mt. Lemmon Survey.  Observer D. Rankin.  Measurers T. Beuden, V. F.
    Carvajal, D. Fay, J. B. Fazekas, D. C. Fuls, A. R. Gibbs, A. D. Grauer, H.
    Groeller, J. K. Hogan, R. A. Kowalski, S. M. Larson, G. J. Leonard, D.
    Rankin, R. L. Seaman, F. C. Shelly, K. W. Wierzchos.  1.5-m reflector +
    10K CCD.
Z84 Calar Alto-Schmidt.  Observers F. Ocana, R. Kresken, M. Micheli, L.
    Conversi.  Measurers F. Ocana, M. Micheli.  0.8-m f/3 Schmidt + CCD.
Orbital elements:
2024 ED4                                                 Earth MOID = 0.0039 AU
Epoch 2024 Mar. 31.0 TT = JDT 2460400.5                 Veres                   
M 352.54356              (2000.0)            P               Q                  
n   0.40527190     Peri.   16.93859     -0.83149912     +0.55542294             
a   1.8084440      Node   196.81431     -0.51387765     -0.77633793             
e   0.4481199      Incl.    2.12065     -0.21104261     -0.29800131             
P   2.43           H   26.51          G   0.15           U   8                  
Residuals in seconds of arc
240312 G96  0.5+  0.9-    240312 G96  1.4+  1.2-    240313 Z84  0.0   0.1-
240312 G96  0.6+  0.0     240312 G96  1.7+  0.4-    240313 Z84  0.0   0.0
240312 G96  0.2-  0.2+    240312 Z84  0.3-  0.3+    240314 807  0.1+  0.2+
240312 G96  0.2+  0.7-    240312 Z84  0.2+  0.3+    240314 807  0.2-  0.1-
240312 G96  0.3+  0.1-    240312 Z84  0.3+  0.1-    240314 807  0.0   0.2-
Ephemeris:
2024 ED4                 a,e,i = 1.81, 0.45, 2                   q = 0.9980
Date    TT    R. A. (2000) Decl.     Delta      r    Elong.  Phase     V
2024 02 13    10 32 56.4 +00 36 10   0.2530  1.2303   162.0    14.4    24.8
...
2024 02 28    10 47 17.0 -02 24 53   0.1586  1.1465   169.1     9.4    23.4
...
2024 03 07    11 02 29.7 -04 52 28   0.1161  1.1068   169.6     9.3    22.7
...
2024 03 13    11 23 26.2 -07 44 01   0.08760 1.0801   169.1    10.0    22.0
2024 03 14    11 28 21.5 -08 21 22   0.08314 1.0759   168.9    10.2    21.9
2024 03 15    11 33 51.5 -09 02 08   0.07878 1.0718   168.7    10.5    21.8
...
2024 03 21    12 25 27.4 -14 43 37   0.05519 1.0494   164.4    14.8    21.2
...
2024 03 29    15 15 55.5 -25 22 01   0.03749 1.0251   134.7    43.8    21.1
...
2024 04 13    19 53 50.5 -15 24 14   0.07208 1.0000    85.8    90.1    24.0
M. P. C. Staff               (C) Copyright 2024 MPC           M.P.E.C. 2024-E184
    
    
More information about the Iaude
mailing list